[[{"header":{"parameterUnit":"m.s-1","parameterCategory":1,"la1":30.2991,"la2":30.254,"lo1":-89.0895,"lo2":-89.0444,"dy":0.0017,"dx":0.0017,"nx":28,"ny":28,"refTime":"2024-09-29T09:00:00:Z","depth":0,"parameterNumber":2,"parameterNumberName":"U-component_of_WINDS"},"data":[0,0,0,0,0,0,0,0,0,0,0,0,0,0,0,0,0,0,0,0,0,0,0,0,0,0,0,0,0,0,0,0,0,0,0,0,0,0,0,0,0,0,0,0,0,0,0,0,0,0,0,0,0,0,0,0,0,0,2.4022,2.4024,0,2.4175,2.4177,2.4179,2.4167,2.4165,2.4162,2.416,2.4321,2.4327,2.4333,0,0,0,0,0,0,0,0,0,0,0,0,0,2.3723,2.3729,2.4022,2.4024,2.4026,2.4175,2.4177,2.4179,2.4167,2.4165,2.4162,2.4159,2.4319,2.4326,2.4334,0,0,0,0,0,0,0,0,0,0,0,0,0,2.3863,2.3731,2.4022,2.4038,2.4041,2.4175,2.4177,2.418,2.4168,2.4165,2.4161,2.4158,2.4316,2.4325,2.4335,2.4464,0,0,2.4364,2.4369,0,0,0,0,0,0,0,0,2.3855,2.3874,2.4034,2.4037,2.4041,2.4148,2.4131,2.4275,2.4169,2.412,2.416,2.4156,2.4266,2.428,2.4316,2.4471,2.4478,2.4365,2.4371,2.4375,2.4378,0,0,0,0,0,0,0,2.3845,2.3867,2.4083,2.4036,2.404,2.4039,2.4055,2.4158,2.4211,2.4124,2.4123,2.4141,2.4268,2.4307,2.432,2.4481,2.4365,2.4374,2.438,2.4383,2.4751,2.4755,0,0,0,0,0,0,2.3831,2.3859,2.4078,2.4087,2.3937,2.4047,2.4065,2.4117,2.421,2.422,2.4144,2.414,2.4292,2.4309,2.4326,2.4484,2.4375,2.4384,2.439,2.4747,2.4752,2.4757,0,0,0,0,0,0,2.3825,2.3851,2.4072,2.3973,2.4001,2.4056,2.4115,2.4122,2.4162,2.4225,2.4235,2.4175,2.429,2.4312,2.443,2.4489,2.4389,2.4397,2.4743,2.4749,2.4754,2.48,0,0,0,0,0,0,2.3816,2.3849,2.3897,2.3974,2.4006,2.4172,2.4119,2.4128,2.4178,2.4174,2.4256,2.4266,2.4289,2.4416,2.4439,2.4501,2.4405,2.4738,2.4745,2.4752,2.4794,2.4807,2.4819,0,0,0,0,0,2.3806,2.3904,2.39,2.3926,2.4068,2.4175,2.4194,2.4217,2.4183,2.4233,2.4274,2.4264,2.4479,2.4428,2.4454,2.452,2.4734,2.4743,2.4752,2.4788,2.4805,2.4818,0,0,0,0,0,0,2.3833,2.3915,2.391,2.4037,2.4099,2.4173,2.4237,2.4234,2.4308,2.4302,2.4329,2.4347,2.4466,2.4505,2.4446,2.465,2.4602,2.4617,2.4621,2.4637,2.4649,2.4637,2.4413,0,0,0,0,0,2.3854,2.3933,2.4001,2.4106,2.4137,2.4182,2.4229,2.4242,2.4308,2.4335,2.4385,2.4451,2.4533,2.4587,2.4666,2.4799,2.4818,2.4858,2.487,2.488,2.4893,2.4968,2.4986,2.4786,2.4786,2.4786,0,0,2.3898,2.3952,2.4001,2.4113,2.4162,2.4246,2.4204,2.4293,2.4356,2.4349,2.4463,2.4502,2.4578,2.4704,2.4762,2.474,2.4952,2.4891,2.4899,2.4906,2.4979,2.4998,2.5015,2.4792,2.4791,2.479,0,0,2.402,2.4068,2.4162,2.4213,2.4289,2.4318,2.434,2.4416,2.4441,2.4556,2.4553,2.4628,2.4769,2.4824,2.487,2.5014,2.5009,2.504,2.5105,2.5178,2.5193,2.5207,2.526,2.5279,2.5052,2.5052,2.5052,0,2.4065,2.4189,2.421,2.4301,2.4351,2.4348,2.4444,2.4493,2.4591,2.4627,2.46,2.4778,2.4829,2.4968,2.5004,2.5041,2.5069,2.503,2.5189,2.5203,2.5217,2.5268,2.5287,2.5055,2.5055,2.5055,2.5054,0,2.4241,2.4327,2.4393,2.4488,2.4545,2.4638,2.4676,2.4732,2.474,2.4772,2.489,2.4951,2.5043,2.5077,2.5086,2.5219,2.5203,2.5183,2.5135,2.5239,2.5287,2.5307,2.506,2.5059,2.5058,2.5057,0,0,2.4384,2.449,2.4514,2.4558,2.4642,2.471,2.4803,2.4892,2.494,2.5009,2.5089,2.5209,2.5191,2.5244,2.5259,2.5323,2.5435,2.5295,2.5297,2.532,2.5587,2.5603,2.5625,2.5432,2.5436,2.5439,2.5581,0,2.4516,2.4679,2.4702,2.4848,2.4929,2.4928,2.501,2.5071,2.5104,2.5179,2.5216,2.5302,2.527,2.5302,2.5365,2.5408,2.5489,2.5398,2.5508,2.5512,2.549,2.565,2.5666,2.5797,2.56,2.5603,2.5606,0,2.469,2.4763,2.4916,2.499,2.5025,2.5098,2.5183,2.5253,2.5324,2.5344,2.5403,2.5411,2.551,2.5458,2.5595,2.5533,2.5579,2.5607,2.5613,2.5625,2.5565,2.5666,2.584,2.586,2.5635,2.5633,2.5631,0,2.4781,2.4917,2.5026,2.5063,2.5153,2.5204,2.5244,2.5311,2.5364,2.5438,2.5473,2.5559,2.5606,2.5673,2.5704,2.5663,2.5841,2.5791,2.5862,2.5861,2.5899,2.5896,2.6083,2.5928,2.5928,2.5927,2.5927,0,2.4925,2.5019,2.5068,2.5136,2.5242,2.5268,2.5373,2.5412,2.5472,2.5548,2.5553,2.5625,2.5662,2.574,2.5766,2.5877,2.5898,2.5918,2.5924,2.5918,2.5916,2.5949,2.5941,2.5933,2.5932,2.5931,2.593,0,2.5044,2.508,2.52,2.5275,2.5296,2.5371,2.5436,2.5502,2.5535,2.5632,2.5657,2.5709,2.5802,2.584,2.5953,2.597,2.6098,2.6097,2.6074,2.6076,2.6145,2.6138,2.6361,2.6392,2.6215,2.6217,2.6218,0,2.5134,2.5206,2.5289,2.534,2.5381,2.5463,2.5517,2.5546,2.5602,2.5689,2.5746,2.5838,2.5913,2.6061,2.6111,2.6198,2.6199,2.6271,2.6213,2.6205,2.6202,2.6197,2.6206,2.6282,2.6284,2.6285,2.6286,0,2.529,2.5305,2.5381,2.5465,2.5529,2.5596,2.5662,2.5704,2.5744,2.5808,2.5902,2.596,2.6076,2.6168,2.6258,2.6302,2.6302,2.6305,2.6326,2.6321,2.6305,2.6316,2.6104,2.6299,2.6298,2.6297,2.6296,2.6296,2.5398,2.5463,2.5531,2.5617,2.567,2.5731,2.5798,2.5839,2.5918,2.6013,2.6027,2.6128,2.6199,2.632,2.6367,2.6448,2.643,2.646,2.6468,2.6475,2.648,2.6292,2.6464,2.6464,2.6464,2.6463,2.6463,0,2.5555,2.56,2.5678,2.577,2.5838,2.5831,2.5904,2.5962,2.605,2.6115,2.6189,2.6298,2.6388,2.6445,2.6536,2.659,2.6593,2.6613,2.661,2.662,2.6491,2.6464,2.6609,2.6609,2.6609,2.6609,2.6609,2.6609,2.5645,2.5755,2.5778,2.5914,2.5958,2.6056,2.6099,2.6157,2.6209,2.633,2.6404,2.644,2.6503,2.6599,2.6682,2.6696,2.673,2.6752,2.6766,2.6644,2.6629,2.6614,2.6589,2.6759,2.6759,2.6889,2.689,2.6891]},{"header":{"parameterUnit":"m.s-1","parameterCategory":1,"la1":30.2991,"la2":30.254,"lo1":-89.0895,"lo2":-89.0444,"dy":0.0017,"dx":0.0017,"nx":28,"ny":28,"refTime":"2024-09-29T09:00:00:Z","depth":0,"parameterNumber":3,"parameterNumberName":"V-component_of_WINDS"},"data":[0,0,0,0,0,0,0,0,0,0,0,0,0,0,0,0,0,0,0,0,0,0,0,0,0,0,0,0,0,0,0,0,0,0,0,0,0,0,0,0,0,0,0,0,0,0,0,0,0,0,0,0,0,0,0,0,0,0,0.4766,0.4767,0,0.4846,0.4847,0.4848,0.4838,0.4837,0.4836,0.4835,0.4924,0.4927,0.4931,0,0,0,0,0,0,0,0,0,0,0,0,0,0.4611,0.4614,0.4766,0.4767,0.4768,0.4846,0.4847,0.4848,0.4839,0.4837,0.4835,0.4834,0.4923,0.4927,0.4931,0,0,0,0,0,0,0,0,0,0,0,0,0,0.4684,0.4615,0.4766,0.4772,0.4774,0.4846,0.4847,0.4848,0.4839,0.4837,0.4835,0.4833,0.4921,0.4926,0.4932,0.5004,0,0,0.4948,0.495,0,0,0,0,0,0,0,0,0.468,0.4689,0.477,0.4772,0.4774,0.483,0.4825,0.4901,0.484,0.4814,0.4835,0.4832,0.4895,0.4902,0.4922,0.5009,0.5012,0.4949,0.4952,0.4954,0.4956,0,0,0,0,0,0,0,0.4675,0.4686,0.4798,0.4772,0.4774,0.4774,0.4782,0.484,0.4865,0.4816,0.4816,0.4825,0.4895,0.4916,0.4924,0.5014,0.4948,0.4953,0.4957,0.4959,0.5166,0.5169,0,0,0,0,0,0,0.4667,0.4682,0.4795,0.48,0.4721,0.4778,0.4787,0.4814,0.4864,0.487,0.4827,0.4824,0.4908,0.4917,0.4927,0.5017,0.4954,0.4959,0.4962,0.5164,0.5167,0.5169,0,0,0,0,0,0,0.4664,0.4677,0.4792,0.4741,0.4755,0.4783,0.4813,0.4817,0.4838,0.4872,0.4877,0.4843,0.4907,0.4919,0.4985,0.502,0.4962,0.4967,0.5161,0.5165,0.5168,0.5196,0,0,0,0,0,0,0.4659,0.4676,0.4702,0.4741,0.4758,0.4847,0.4815,0.482,0.4846,0.4844,0.4889,0.4894,0.4906,0.4977,0.499,0.5026,0.4971,0.5159,0.5163,0.5167,0.5192,0.52,0.5207,0,0,0,0,0,0.4654,0.4708,0.4703,0.4717,0.4791,0.4849,0.4859,0.4869,0.4849,0.4877,0.4899,0.4893,0.5013,0.4984,0.4999,0.5037,0.5157,0.5162,0.5167,0.5189,0.5199,0.5207,0,0,0,0,0,0,0.4674,0.4713,0.4709,0.4777,0.4809,0.4847,0.4882,0.4879,0.492,0.4916,0.493,0.494,0.5007,0.5028,0.4995,0.5111,0.5082,0.5091,0.5094,0.5104,0.5111,0.5105,0.4975,0,0,0,0,0,0.4686,0.4728,0.476,0.4818,0.4834,0.4855,0.4881,0.4886,0.4921,0.4936,0.4962,0.4999,0.5045,0.5075,0.5119,0.5195,0.5206,0.5228,0.5235,0.5241,0.5249,0.5293,0.5304,0.5186,0.5186,0.5186,0,0,0.4713,0.4739,0.4765,0.4822,0.4848,0.4893,0.4867,0.4915,0.495,0.4944,0.5008,0.5028,0.507,0.5141,0.5174,0.5161,0.5284,0.5248,0.5252,0.5257,0.5299,0.531,0.532,0.519,0.5189,0.5189,0,0,0.4784,0.4807,0.4857,0.4883,0.4922,0.4936,0.4948,0.4987,0.5,0.5063,0.506,0.5102,0.5181,0.5211,0.5237,0.5319,0.5316,0.5333,0.5372,0.5414,0.5424,0.5432,0.5464,0.5475,0.5341,0.5341,0.5341,0,0.4812,0.4877,0.4885,0.4933,0.496,0.4954,0.5007,0.5033,0.5085,0.5105,0.5089,0.5188,0.5215,0.5295,0.5315,0.5335,0.5351,0.5329,0.5421,0.543,0.5438,0.5468,0.548,0.5343,0.5342,0.5342,0.5342,0,0.4912,0.4957,0.4994,0.5042,0.5073,0.5123,0.5141,0.5171,0.5174,0.519,0.5256,0.5289,0.534,0.5359,0.5363,0.544,0.5431,0.5418,0.539,0.5451,0.548,0.5491,0.5346,0.5345,0.5344,0.5344,0,0,0.4999,0.505,0.5064,0.5086,0.5128,0.5165,0.5216,0.5264,0.5291,0.5328,0.5373,0.5439,0.5428,0.5457,0.5464,0.5501,0.5567,0.5484,0.5485,0.55,0.5657,0.5667,0.5681,0.5564,0.5567,0.5568,0.5654,0,0.5076,0.5164,0.5172,0.5253,0.5297,0.5292,0.5337,0.5369,0.5386,0.5427,0.5447,0.5494,0.5474,0.5492,0.5528,0.5551,0.5599,0.5545,0.561,0.5612,0.5601,0.5695,0.5707,0.5786,0.5665,0.5667,0.5668,0,0.5177,0.5215,0.5299,0.5336,0.5354,0.5394,0.544,0.5478,0.5516,0.5526,0.5558,0.556,0.5616,0.5585,0.5663,0.5626,0.5653,0.5669,0.5672,0.5681,0.5645,0.5709,0.5811,0.5824,0.5686,0.5684,0.5683,0,0.5235,0.5306,0.5366,0.5386,0.543,0.5458,0.5479,0.5513,0.5542,0.5583,0.5602,0.5649,0.5676,0.5713,0.5729,0.5704,0.5808,0.5777,0.582,0.582,0.5844,0.5843,0.5955,0.5858,0.5857,0.5857,0.5857,0,0.5321,0.5374,0.5393,0.543,0.549,0.5499,0.5558,0.5578,0.5609,0.5652,0.5651,0.5692,0.5709,0.5753,0.5766,0.5831,0.5843,0.5854,0.5858,0.5856,0.5854,0.5875,0.5871,0.586,0.586,0.5859,0.5858,0,0.5397,0.5411,0.5477,0.5513,0.5523,0.5565,0.5597,0.5635,0.565,0.5705,0.5718,0.5744,0.5796,0.5815,0.5879,0.5888,0.5964,0.5961,0.5951,0.5952,0.5995,0.5991,0.6126,0.6145,0.6033,0.6034,0.6035,0,0.5451,0.5491,0.5531,0.5558,0.5579,0.5623,0.5652,0.5664,0.5695,0.574,0.5773,0.5824,0.5866,0.595,0.5976,0.6026,0.6026,0.607,0.6034,0.6031,0.603,0.6028,0.6033,0.6077,0.6078,0.6079,0.608,0,0.5548,0.5553,0.5594,0.5637,0.5671,0.5707,0.5741,0.5764,0.5781,0.5816,0.5868,0.59,0.5965,0.6017,0.6068,0.6091,0.609,0.6091,0.6104,0.6103,0.6096,0.6103,0.5971,0.6088,0.6087,0.6087,0.6086,0.6086,0.5617,0.5652,0.5686,0.5732,0.5758,0.579,0.5827,0.5847,0.589,0.5942,0.5947,0.6004,0.6042,0.6109,0.6135,0.6182,0.617,0.6188,0.6194,0.6198,0.6203,0.6087,0.6191,0.619,0.619,0.619,0.619,0,0.5715,0.5736,0.5777,0.5825,0.5861,0.5853,0.5891,0.5923,0.5973,0.6007,0.6047,0.6109,0.6159,0.6189,0.624,0.6272,0.6273,0.6285,0.6285,0.6291,0.6209,0.6193,0.6284,0.6284,0.6284,0.6284,0.6284,0.6284,0.577,0.5831,0.584,0.5915,0.5937,0.5991,0.6013,0.6044,0.6072,0.6139,0.618,0.6198,0.6232,0.6286,0.6333,0.634,0.6361,0.6375,0.6382,0.6306,0.6296,0.6287,0.6273,0.6378,0.6378,0.646,0.6461,0.6461]}]]